| time (UTC) | temp C | wind direction | speed KPH | gust KPH | rain 1hr cm | rain 24hr cm | rain mn cm | humidity % | barometer mb |
| 20260505075827 | 5 | 166 | 3.2 | 4.8 | 0.00 | 0.00 | 0.00 | 56 | 1007.1 |
| 20260505075324 | 5 | 212 | 3.2 | 4.8 | 0.00 | 0.00 | 0.00 | 56 | 1007.0 |
| 20260505074822 | 5 | 208 | 3.2 | 3.2 | 0.00 | 0.00 | 0.00 | 56 | 1006.9 |
| 20260505074319 | 5 | 198 | 1.6 | 3.2 | 0.00 | 0.00 | 0.00 | 55 | 1007.2 |
| 20260505073816 | 5 | 248 | 3.2 | 8.0 | 0.00 | 0.00 | 0.00 | 54 | 1007.1 |
| 20260505073314 | 5 | 304 | 3.2 | 4.8 | 0.00 | 0.00 | 0.00 | 54 | 1007.2 |
| 20260505072811 | 5 | 233 | 3.2 | 4.8 | 0.00 | 0.00 | 0.00 | 54 | 1007.0 |
| 20260505072307 | 5 | 171 | 1.6 | 3.2 | 0.00 | 0.00 | 0.00 | 55 | 1007.1 |
| 20260505071802 | 5 | 175 | 0.0 | 0.0 | 0.00 | 0.00 | 0.00 | 55 | 1007.2 |
| 20260505071259 | 5 | 226 | 3.2 | 3.2 | 0.00 | 0.00 | 0.00 | 54 | 1007.1 |
| 20260505070757 | 5 | 244 | 1.6 | 3.2 | 0.00 | 0.00 | 0.00 | 54 | 1007.2 |
| 20260505070254 | 5 | 121 | 3.2 | 3.2 | 0.00 | 0.00 | 0.00 | 54 | 1007.2 |
| 20260505065748 | 5 | 175 | 0.0 | 0.0 | 0.00 | 0.00 | 0.00 | 54 | 1007.2 |
| 20260505065246 | 5 | 185 | 3.2 | 4.8 | 0.00 | 0.00 | 0.00 | 54 | 1007.3 |
| 20260505064743 | 5 | 210 | 6.4 | 8.0 | 0.00 | 0.00 | 0.00 | 54 | 1007.3 |
| 20260505064240 | 6 | 176 | 3.2 | 4.8 | 0.00 | 0.00 | 0.00 | 54 | 1007.1 |
| 20260505063738 | 6 | 173 | 0.0 | 0.0 | 0.00 | 0.00 | 0.00 | 55 | 1007.0 |
| 20260505063234 | 6 | 277 | 6.4 | 8.0 | 0.00 | 0.00 | 0.00 | 54 | 1007.1 |
| 20260505062730 | 6 | 245 | 3.2 | 4.8 | 0.00 | 0.00 | 0.00 | 54 | 1007.3 |
| 20260505062228 | 6 | 259 | 0.0 | 3.2 | 0.00 | 0.00 | 0.00 | 55 | 1007.2 |
| 20260505061725 | 6 | 321 | 4.8 | 8.0 | 0.00 | 0.00 | 0.00 | 55 | 1007.2 |
| 20260505061223 | 6 | 194 | 1.6 | 3.2 | 0.00 | 0.00 | 0.00 | 55 | 1007.2 |
| 20260505060720 | 6 | 3 | 3.2 | 4.8 | 0.00 | 0.00 | 0.00 | 55 | 1007.3 |
| 20260505060217 | 6 | 152 | 4.8 | 8.0 | 0.00 | 0.00 | 0.00 | 55 | 1007.3 |
| 20260505055712 | 6 | 89 | 0.0 | 3.2 | 0.00 | 0.00 | 0.00 | 56 | 1007.3 |
| 20260505055209 | 5 | 183 | 0.0 | 0.0 | 0.00 | 0.00 | 0.00 | 57 | 1007.2 |
| 20260505054706 | 5 | 164 | 1.6 | 3.2 | 0.00 | 0.00 | 0.00 | 58 | 1006.9 |
| 20260505054204 | 5 | 170 | 0.0 | 0.0 | 0.00 | 0.00 | 0.00 | 57 | 1007.1 |
| 20260505053702 | 6 | 171 | 0.0 | 0.0 | 0.00 | 0.00 | 0.00 | 56 | 1006.9 |
| 20260505053158 | 6 | 172 | 0.0 | 0.0 | 0.00 | 0.00 | 0.00 | 56 | 1007.0 |
| 20260505052655 | 6 | 243 | 3.2 | 3.2 | 0.00 | 0.00 | 0.00 | 56 | 1007.0 |
| 20260505052152 | 6 | 291 | 3.2 | 4.8 | 0.00 | 0.00 | 0.00 | 56 | 1006.9 |
| 20260505051649 | 6 | 233 | 0.0 | 0.0 | 0.00 | 0.00 | 0.00 | 57 | 1006.8 |
| 20260505051147 | 6 | 178 | 0.0 | 0.0 | 0.00 | 0.00 | 0.00 | 56 | 1006.9 |
| 20260505050645 | 6 | 174 | 0.0 | 0.0 | 0.00 | 0.00 | 0.00 | 55 | 1006.7 |
| 20260505050143 | 6 | 184 | 0.0 | 0.0 | 0.00 | 0.00 | 0.00 | 55 | 1007.0 |
| 20260505041612 | 6 | 170 | 0.0 | 0.0 | 0.00 | 0.00 | 0.00 | 55 | 1006.7 |
| 20260505041110 | 6 | 139 | 0.0 | 0.0 | 0.00 | 0.00 | 0.00 | 55 | 1006.6 |
| 20260505040607 | 6 | 173 | 0.0 | 0.0 | 0.00 | 0.00 | 0.00 | 54 | 1006.6 |
| 20260505040104 | 6 | 173 | 0.0 | 0.0 | 0.00 | 0.00 | 0.00 | 54 | 1006.6 |
| 20260505035600 | 6 | 168 | 0.0 | 0.0 | 0.00 | 0.00 | 0.00 | 53 | 1006.7 |
| 20260505035057 | 6 | 179 | 0.0 | 0.0 | 0.00 | 0.00 | 0.00 | 52 | 1006.7 |
| 20260505034553 | 6 | 174 | 0.0 | 0.0 | 0.00 | 0.00 | 0.00 | 52 | 1006.5 |
| 20260505034050 | 7 | 171 | 0.0 | 0.0 | 0.00 | 0.00 | 0.00 | 51 | 1006.5 |
| 20260505033547 | 7 | 178 | 0.0 | 0.0 | 0.00 | 0.00 | 0.00 | 51 | 1006.4 |
| 20260505033045 | 6 | 150 | 0.0 | 0.0 | 0.00 | 0.00 | 0.00 | 50 | 1006.5 |
| 20260505032543 | 7 | 161 | 0.0 | 0.0 | 0.00 | 0.00 | 0.00 | 51 | 1006.6 |
| 20260505032039 | 7 | 175 | 0.0 | 0.0 | 0.00 | 0.00 | 0.00 | 50 | 1006.5 |
| 20260505031537 | 7 | 147 | 1.6 | 4.8 | 0.00 | 0.00 | 0.00 | 50 | 1006.7 |
| 20260505031033 | 7 | 215 | 1.6 | 3.2 | 0.00 | 0.00 | 0.00 | 50 | 1006.5 |
| 20260505030530 | 7 | 168 | 0.0 | 0.0 | 0.00 | 0.00 | 0.00 | 50 | 1006.6 |
| 20260505030026 | 7 | 166 | 0.0 | 0.0 | 0.00 | 0.00 | 0.00 | 49 | 1006.4 |
| 20260505025522 | 7 | 164 | 0.0 | 0.0 | 0.00 | 0.00 | 0.00 | 49 | 1006.4 |
| 20260505025021 | 7 | 181 | 0.0 | 0.0 | 0.00 | 0.00 | 0.00 | 49 | 1006.5 |
| 20260505024518 | 7 | 158 | 0.0 | 0.0 | 0.00 | 0.00 | 0.00 | 49 | 1006.5 |
| 20260505024015 | 7 | 154 | 0.0 | 0.0 | 0.00 | 0.00 | 0.00 | 48 | 1006.3 |
| 20260505023511 | 7 | 155 | 0.0 | 3.2 | 0.00 | 0.00 | 0.00 | 48 | 1006.3 |
| 20260505023009 | 7 | 173 | 0.0 | 0.0 | 0.00 | 0.00 | 0.00 | 48 | 1006.3 |
| 20260505022507 | 7 | 161 | 0.0 | 0.0 | 0.00 | 0.00 | 0.00 | 48 | 1006.2 |
| 20260505022004 | 7 | 168 | 0.0 | 0.0 | 0.00 | 0.00 | 0.00 | 46 | 1006.0 |
| 20260505021500 | 8 | 224 | 3.2 | 3.2 | 0.00 | 0.00 | 0.00 | 46 | 1005.9 |
| 20260505020955 | 8 | 170 | 1.6 | 3.2 | 0.00 | 0.00 | 0.00 | 45 | 1005.8 |
| 20260505020451 | 8 | 179 | 0.0 | 0.0 | 0.00 | 0.00 | 0.00 | 45 | 1005.8 |
| 20260505015948 | 8 | 195 | 1.6 | 3.2 | 0.00 | 0.00 | 0.00 | 44 | 1005.7 |
| 20260505015446 | 8 | 160 | 0.0 | 3.2 | 0.00 | 0.00 | 0.00 | 43 | 1005.8 |
| 20260505014942 | 8 | 254 | 3.2 | 4.8 | 0.00 | 0.00 | 0.00 | 43 | 1005.6 |
| 20260505014439 | 8 | 352 | 3.2 | 8.0 | 0.00 | 0.00 | 0.00 | 42 | 1005.8 |
| 20260505013937 | 9 | 338 | 11.3 | 16.1 | 0.00 | 0.00 | 0.00 | 42 | 1005.7 |
| 20260505013434 | 9 | 39 | 16.1 | 19.3 | 0.00 | 0.00 | 0.00 | 42 | 1005.7 |
| 20260505012931 | 9 | 220 | 9.7 | 16.1 | 0.00 | 0.00 | 0.00 | 42 | 1005.6 |
| 20260505012429 | 9 | 157 | 1.6 | 3.2 | 0.00 | 0.00 | 0.00 | 44 | 1005.5 |
| 20260505011925 | 9 | 332 | 4.8 | 8.0 | 0.00 | 0.00 | 0.00 | 43 | 1005.4 |
| 20260505011421 | 10 | 201 | 1.6 | 3.2 | 0.00 | 0.00 | 0.00 | 43 | 1005.3 |
| 20260505010918 | 10 | 204 | 9.7 | 14.5 | 0.00 | 0.00 | 0.00 | 43 | 1005.2 |
| 20260505010414 | 10 | 239 | 11.3 | 22.5 | 0.00 | 0.00 | 0.00 | 42 | 1004.9 |
| 20260505005910 | 10 | 319 | 9.7 | 14.5 | 0.00 | 0.00 | 0.00 | 42 | 1005.2 |
| 20260505005407 | 10 | 349 | 4.8 | 4.8 | 0.00 | 0.00 | 0.00 | 42 | 1004.6 |
| 20260505004905 | 10 | 196 | 9.7 | 19.3 | 0.00 | 0.00 | 0.00 | 41 | 1004.7 |
| 20260505004401 | 10 | 231 | 9.7 | 11.3 | 0.00 | 0.00 | 0.00 | 42 | 1004.6 |
| 20260505003858 | 10 | 31 | 12.9 | 19.3 | 0.00 | 0.00 | 0.00 | 41 | 1004.6 |
| 20260505003355 | 11 | 294 | 8.0 | 14.5 | 0.00 | 0.00 | 0.00 | 41 | 1004.4 |
| 20260505002852 | 11 | 193 | 3.2 | 4.8 | 0.00 | 0.00 | 0.00 | 41 | 1004.5 |
| 20260505002348 | 11 | 246 | 6.4 | 11.3 | 0.00 | 0.00 | 0.00 | 40 | 1004.4 |
| 20260505001847 | 11 | 327 | 6.4 | 8.0 | 0.00 | 0.00 | 0.00 | 39 | 1004.3 |
| 20260505001344 | 11 | 154 | 14.5 | 22.5 | 0.00 | 0.00 | 0.00 | 39 | 1004.0 |
| 20260505000841 | 11 | 257 | 6.4 | 8.0 | 0.00 | 0.00 | 0.00 | 39 | 1004.1 |
| 20260505000338 | 11 | 304 | 3.2 | 4.8 | 0.00 | 0.00 | 0.00 | 40 | 1004.1 |
| 20260504235835 | 11 | 41 | 3.2 | 4.8 | 0.00 | 0.00 | 0.00 | 40 | 1004.0 |
| 20260504235332 | 11 | 341 | 11.3 | 19.3 | 0.00 | 0.00 | 0.00 | 39 | 1004.0 |
| 20260504234828 | 11 | 37 | 11.3 | 14.5 | 0.00 | 0.00 | 0.00 | 39 | 1003.7 |
| 20260504234326 | 12 | 274 | 16.1 | 22.5 | 0.00 | 0.00 | 0.00 | 38 | 1003.8 |
| 20260504233822 | 12 | 334 | 9.7 | 14.5 | 0.00 | 0.00 | 0.00 | 39 | 1003.8 |
| 20260504233318 | 12 | 227 | 0.0 | 3.2 | 0.00 | 0.00 | 0.00 | 39 | 1003.6 |
| 20260504232815 | 12 | 348 | 3.2 | 4.8 | 0.00 | 0.00 | 0.00 | 38 | 1003.6 |
| 20260504232312 | 12 | 194 | 4.8 | 4.8 | 0.00 | 0.00 | 0.00 | 38 | 1003.4 |
| 20260504231809 | 12 | 290 | 6.4 | 8.0 | 0.00 | 0.00 | 0.00 | 39 | 1003.5 |
| 20260504231306 | 12 | 132 | 11.3 | 16.1 | 0.00 | 0.00 | 0.00 | 39 | 1003.5 |
| 20260504230802 | 12 | 229 | 4.8 | 8.0 | 0.00 | 0.00 | 0.00 | 40 | 1003.5 |
| 20260504230300 | 12 | 335 | 9.7 | 14.5 | 0.00 | 0.00 | 0.00 | 39 | 1003.4 |
| 20260504225758 | 12 | 145 | 3.2 | 3.2 | 0.00 | 0.00 | 0.00 | 40 | 1003.5 |
| 20260504225254 | 12 | 236 | 3.2 | 3.2 | 0.00 | 0.00 | 0.00 | 40 | 1003.4 |
| 20260504224752 | 12 | 223 | 14.5 | 19.3 | 0.00 | 0.00 | 0.00 | 39 | 1003.4 |
| 20260504224249 | 13 | 289 | 8.0 | 11.3 | 0.00 | 0.00 | 0.00 | 39 | 1003.1 |
| 20260504223745 | 13 | 232 | 11.3 | 19.3 | 0.00 | 0.00 | 0.00 | 39 | 1003.0 |
| 20260504223241 | 13 | 350 | 6.4 | 11.3 | 0.00 | 0.00 | 0.00 | 40 | 1002.9 |
| 20260504222738 | 13 | 76 | 6.4 | 8.0 | 0.00 | 0.00 | 0.00 | 40 | 1002.7 |
| 20260504222234 | 13 | 353 | 8.0 | 11.3 | 0.00 | 0.00 | 0.00 | 40 | 1002.7 |
| 20260504221732 | 14 | 347 | 9.7 | 14.5 | 0.00 | 0.00 | 0.00 | 38 | 1002.7 |
| 20260504221229 | 14 | 282 | 6.4 | 11.3 | 0.00 | 0.00 | 0.00 | 40 | 1002.3 |
| 20260504220725 | 15 | 282 | 14.5 | 22.5 | 0.00 | 0.00 | 0.00 | 38 | 1002.5 |
| 20260504220223 | 14 | 236 | 3.2 | 4.8 | 0.00 | 0.00 | 0.00 | 40 | 1002.4 |
| 20260504215720 | 14 | 31 | 3.2 | 8.0 | 0.00 | 0.00 | 0.00 | 40 | 1002.3 |
| 20260504215217 | 15 | 329 | 14.5 | 19.3 | 0.00 | 0.00 | 0.00 | 37 | 1002.1 |
| 20260504214712 | 15 | 314 | 6.4 | 8.0 | 0.00 | 0.00 | 0.00 | 38 | 1002.2 |
| 20260504214209 | 14 | 336 | 11.3 | 19.3 | 0.00 | 0.00 | 0.00 | 39 | 1001.9 |
| 20260504213706 | 13 | 143 | 6.4 | 8.0 | 0.00 | 0.00 | 0.00 | 39 | 1001.8 |
| 20260504213202 | 14 | 71 | 9.7 | 16.1 | 0.00 | 0.00 | 0.00 | 39 | 1001.7 |
| 20260504212659 | 14 | 22 | 9.7 | 19.3 | 0.00 | 0.00 | 0.00 | 38 | 1001.7 |
| 20260504212156 | 16 | 187 | 11.3 | 22.5 | 0.00 | 0.00 | 0.00 | 36 | 1001.8 |
| 20260504211653 | 16 | 252 | 11.3 | 22.5 | 0.00 | 0.00 | 0.00 | 37 | 1001.6 |
| 20260504211149 | 16 | 343 | 9.7 | 30.6 | 0.00 | 0.00 | 0.00 | 36 | 1001.7 |
| 20260504210647 | 15 | 204 | 4.8 | 4.8 | 0.00 | 0.00 | 0.00 | 37 | 1001.7 |
| 20260504210143 | 15 | 0 | 14.5 | 19.3 | 0.00 | 0.00 | 0.00 | 37 | 1001.6 |
| 20260504205641 | 16 | 233 | 3.2 | 3.2 | 0.00 | 0.00 | 0.00 | 38 | 1001.5 |
| 20260504205138 | 16 | 283 | 8.0 | 14.5 | 0.00 | 0.00 | 0.00 | 36 | 1001.7 |
| 20260504204637 | 16 | 275 | 17.7 | 27.4 | 0.00 | 0.00 | 0.00 | 37 | 1001.4 |
| 20260504204135 | 16 | 311 | 11.3 | 22.5 | 0.00 | 0.00 | 0.00 | 37 | 1001.6 |
| 20260504203634 | 16 | 196 | 4.8 | 8.0 | 0.00 | 0.00 | 0.00 | 37 | 1001.5 |
| 20260504203131 | 17 | 300 | 14.5 | 19.3 | 0.00 | 0.00 | 0.00 | 36 | 1001.3 |
| 20260504202631 | 17 | 65 | 6.4 | 8.0 | 0.00 | 0.00 | 0.00 | 36 | 1001.3 |
| 20260504202128 | 17 | 91 | 12.9 | 19.3 | 0.00 | 0.00 | 0.00 | 35 | 1001.1 |
| 20260504201625 | 17 | 289 | 8.0 | 11.3 | 0.00 | 0.00 | 0.00 | 36 | 1001.0 |
| 20260504201123 | 17 | 312 | 9.7 | 16.1 | 0.00 | 0.00 | 0.00 | 36 | 1001.0 |
| 20260504200620 | 17 | 301 | 8.0 | 11.3 | 0.00 | 0.00 | 0.00 | 38 | 1001.0 |
| 20260504200116 | 17 | 31 | 4.8 | 8.0 | 0.00 | 0.00 | 0.00 | 37 | 1000.8 |
| 20260504195612 | 16 | 106 | 9.7 | 14.5 | 0.00 | 0.00 | 0.00 | 37 | 1000.9 |
| 20260504195108 | 16 | 278 | 8.0 | 14.5 | 0.00 | 0.00 | 0.00 | 38 | 1000.7 |
| 20260504194605 | 17 | 18 | 9.7 | 14.5 | 0.00 | 0.00 | 0.00 | 38 | 1000.9 |
| 20260504194101 | 17 | 66 | 4.8 | 4.8 | 0.00 | 0.00 | 0.00 | 38 | 1000.8 |
| 20260504193558 | 16 | 150 | 6.4 | 11.3 | 0.00 | 0.00 | 0.00 | 40 | 1000.7 |
| 20260504193056 | 16 | 344 | 12.9 | 19.3 | 0.00 | 0.00 | 0.00 | 38 | 1000.7 |
| 20260504192554 | 16 | 290 | 9.7 | 22.5 | 0.00 | 0.00 | 0.00 | 39 | 1000.6 |
| 20260504192052 | 17 | 334 | 11.3 | 19.3 | 0.00 | 0.00 | 0.00 | 38 | 1000.4 |
| 20260504191550 | 17 | 292 | 9.7 | 11.3 | 0.00 | 0.00 | 0.00 | 39 | 1000.6 |
| 20260504191046 | 17 | 327 | 8.0 | 11.3 | 0.00 | 0.00 | 0.00 | 38 | 1000.3 |
| 20260504190542 | 16 | 141 | 6.4 | 8.0 | 0.00 | 0.00 | 0.00 | 41 | 1000.2 |
| 20260504190038 | 16 | 312 | 12.9 | 24.1 | 0.00 | 0.00 | 0.00 | 38 | 1000.4 |
| 20260504185536 | 16 | 39 | 8.0 | 16.1 | 0.00 | 0.00 | 0.00 | 39 | 1000.4 |
| 20260504185032 | 16 | 240 | 11.3 | 16.1 | 0.00 | 0.00 | 0.00 | 37 | 1000.2 |
| 20260504184527 | 16 | 223 | 8.0 | 11.3 | 0.00 | 0.00 | 0.00 | 38 | 1000.0 |
| 20260504184023 | 17 | 277 | 8.0 | 14.5 | 0.00 | 0.00 | 0.00 | 36 | 1000.0 |
| 20260504183520 | 18 | 322 | 8.0 | 11.3 | 0.00 | 0.00 | 0.00 | 35 | 999.9 |
| 20260504183019 | 17 | 50 | 8.0 | 11.3 | 0.00 | 0.00 | 0.00 | 38 | 999.8 |
| 20260504182515 | 17 | 296 | 6.4 | 14.5 | 0.00 | 0.00 | 0.00 | 38 | 999.9 |
| 20260504182012 | 17 | 151 | 9.7 | 14.5 | 0.00 | 0.00 | 0.00 | 36 | 999.9 |
| 20260504181509 | 17 | 291 | 6.4 | 8.0 | 0.00 | 0.00 | 0.00 | 36 | 999.6 |
| 20260504181008 | 17 | 312 | 8.0 | 11.3 | 0.00 | 0.00 | 0.00 | 37 | 999.5 |
| 20260504180506 | 16 | 193 | 3.2 | 4.8 | 0.00 | 0.00 | 0.00 | 38 | 999.4 |
| 20260504180004 | 16 | 11 | 3.2 | 3.2 | 0.00 | 0.00 | 0.00 | 37 | 999.6 |
| 20260504175501 | 17 | 267 | 6.4 | 11.3 | 0.00 | 0.00 | 0.00 | 37 | 999.4 |
| 20260504174958 | 17 | 199 | 6.4 | 8.0 | 0.00 | 0.00 | 0.00 | 37 | 999.5 |
| 20260504174456 | 17 | 97 | 6.4 | 14.5 | 0.00 | 0.00 | 0.00 | 36 | 999.4 |
| 20260504173953 | 18 | 358 | 9.7 | 16.1 | 0.00 | 0.00 | 0.00 | 36 | 999.2 |
| 20260504173449 | 17 | 303 | 3.2 | 4.8 | 0.00 | 0.00 | 0.00 | 40 | 999.0 |
| 20260504172947 | 18 | 189 | 3.2 | 4.8 | 0.00 | 0.00 | 0.00 | 39 | 999.0 |
| 20260504172443 | 18 | 23 | 4.8 | 4.8 | 0.00 | 0.00 | 0.00 | 41 | 999.2 |
| 20260504171940 | 17 | 178 | 3.2 | 4.8 | 0.00 | 0.00 | 0.00 | 44 | 999.1 |
| 20260504171437 | 17 | 298 | 8.0 | 22.5 | 0.00 | 0.00 | 0.00 | 43 | 999.0 |
| 20260504170934 | 16 | 206 | 4.8 | 4.8 | 0.00 | 0.00 | 0.00 | 43 | 999.1 |
| 20260504170430 | 17 | 356 | 17.7 | 30.6 | 0.00 | 0.00 | 0.00 | 41 | 999.2 |
| 20260504160349 | 17 | 310 | 3.2 | 4.8 | 0.00 | 0.00 | 0.00 | 41 | 998.9 |
| 20260504150814 | 16 | 162 | 1.6 | 3.2 | 0.00 | 0.00 | 0.00 | 42 | 998.5 |
| 20260504150310 | 16 | 16 | 4.8 | 8.0 | 0.00 | 0.00 | 0.00 | 40 | 998.7 |
| 20260504141240 | 15 | 20 | 4.8 | 8.0 | 0.00 | 0.00 | 0.00 | 41 | 998.6 |
| 20260504140737 | 15 | 344 | 16.1 | 22.5 | 0.00 | 0.00 | 0.00 | 39 | 998.7 |
| 20260504140232 | 15 | 51 | 6.4 | 11.3 | 0.00 | 0.00 | 0.00 | 38 | 998.6 |
| 20260504130701 | 15 | 166 | 3.2 | 3.2 | 0.00 | 0.00 | 0.00 | 48 | 997.2 |
| 20260504130157 | 15 | 149 | 1.6 | 3.2 | 0.00 | 0.00 | 0.00 | 48 | 997.0 |
| 20260504120121 | 14 | 191 | 1.6 | 3.2 | 0.00 | 0.00 | 0.00 | 47 | 996.5 |
| 20260504110549 | 14 | 191 | 8.0 | 8.0 | 0.00 | 0.00 | 0.00 | 45 | 996.1 |
| 20260504100510 | 13 | 193 | 3.2 | 3.2 | 0.00 | 0.00 | 0.00 | 47 | 996.5 |
| 20260504081903 | 13 | 184 | 3.2 | 3.2 | 0.00 | 0.00 | 0.00 | 46 | 998.3 |
| 20260504081400 | 13 | 196 | 0.0 | 3.2 | 0.00 | 0.00 | 0.00 | 47 | 998.5 |
| 20260504080856 | 13 | 161 | 0.0 | 3.2 | 0.00 | 0.00 | 0.00 | 46 | 998.7 |
| 20260504080353 | 13 | 180 | 3.2 | 3.2 | 0.00 | 0.00 | 0.00 | 46 | 998.6 |